Regional Weather Roundup
Issued by NWS

Home | Current Version | Previous Version | Text Only | Print | Product List | Glossary Off
Versions: 1 2 3 4 5 6 7 8 9 10 11 12 13 14 15 16 17 18 19 20 21 22 23 24 25 26 27 28 29 30 31 32 33 34 35 36 37 38 39 40 41 42 43 44 45 46 47 48 49 50

782
ASUS43 KLOT 272008
RWRIL

ILLINOIS REGIONAL WEATHER ROUNDUP
NATIONAL WEATHER SERVICE CHICAGO/ROMEOVILLE IL
300 PM CDT THU APR 27 2017

NOTE: "FAIR" INDICATES FEW OR NO CLOUDS BELOW 12,000 FEET WITH NO
SIGNIFICANT WEATHER AND/OR OBSTRUCTIONS TO VISIBILITY.

* THESE STATIONS ARE NOT UNDER NWS QUALITY CONTROL. THEY ALSO MAY NOT
  REPORT WEATHER SUCH AS PRECIPITATION OR FOG.

ILZ001-002-007-009-015-016-024-272100-
NORTHWEST ILLINOIS

CITY           SKY/WX    TMP DP  RH WIND       PRES   REMARKS
MOLINE         CLOUDY    45  33  63 W18G28    29.72R
STERLING*      CLOUDY    42  36  79 W18       29.70
SAVANNA*       CLOUDY    42  34  73 SW17      29.68R
$$

ILZ003-004-008-010-011-017-018-272100-
NORTH CENTRAL ILLINOIS

CITY           SKY/WX    TMP DP  RH WIND       PRES   REMARKS
ROCKFORD       DRIZZLE   43  36  76 W16G25    29.68R
FREEPORT*      CLOUDY    41  36  83 SW12G21   29.67R
ROCHELLE*      CLOUDY    42  38  84 W22       29.69R
DE KALB*       CLOUDY    42  37  82 W21G26    29.68R
PERU*          CLOUDY    45  37  74 W17G28    29.72R
$$

ILZ005-006-012>014-019>023-272100-
NORTHEAST ILLINOIS

CITY           SKY/WX    TMP DP  RH WIND       PRES   REMARKS
CHICAGO-OHARE  CLOUDY    46  37  71 W20G28    29.66
CHICAGO-MIDWAY CLOUDY    47  39  74 SW18G29   29.68R
AURORA         CLOUDY    46  39  76 SW16G23   29.69R
LANSING*       CLOUDY    46  41  81 SW17G26   29.70R
JOLIET*        CLOUDY    48  40  74 W13       29.70R
WAUKEGAN       CLOUDY    45  38  76 SW14G20   29.63
DUPAGE AIRPORT CLOUDY    44  40  85 SW17      29.67R
KANKAKEE*      CLOUDY    48  40  73 SW14G21   29.73R
WHEELING       CLOUDY    45  38  76 SW20      29.66R
MORRIS*        CLOUDY    46  39  74 W20G26    29.70R
ROMEOVILLE*    CLOUDY    46  42  86 W20G26    29.70R
NORTHERLY ISL    N/A     46  37  71 S8          N/A
$$

LMZ740>746-272100-
SOUTHERN LAKE MICHIGAN

STATION/POSITION SKY/WX   TEMP    WIND        PRES    VSBY  WAVE
                          AIR SEA DIR/SP/G                  HT/PER
                          (F)     (DEG/KT/KT) (MB)    (MI)  (FT/S)
SOUTHERN BUOY              43 41  270/ 16/ 19 1002.2          5/ 5
HARRISON CRIB              46     240/ 21/ 27   N/A
BURNHAM HARBOR             46     270/ 15/ 16   N/A
CALUMET HARBOR             46     220/ 11/ 17 1004.6R
BURNS HARBOR               47     240/ 15/ 23 1005.8R
MICHIGAN CITY              46     220/ 19/ 21   N/A
MICHIGAN CITY 6N           46 47                N/A           4/ 4
ST. JOSEPH                 45 48  260/ 14/ 19 1005.8          4/ 5
$$

ILZ025>027-034>036-040-047-049-050-058-095>099-272100-
WEST-CENTRAL ILLINOIS

CITY           SKY/WX    TMP DP  RH WIND       PRES   REMARKS
QUINCY         CLOUDY    53  40  61 W15G23    29.74F
GALESBURG*     CLOUDY    46  38  75 W14       29.73R
MACOMB*        CLOUDY    48  41  76 W16G22    29.76R
JACKSONVILLE*  CLOUDY    52  41  67 W12       29.76S
PITTSFIELD*    CLOUDY    53  41  63 W10G18    29.78S
$$

ILZ028>032-037-038-041>044-048-051>054-059>061-272100-
CENTRAL ILLINOIS

CITY           SKY/WX    TMP DP  RH WIND       PRES   REMARKS
PONTIAC        CLOUDY    48  42  80 W16       29.73R
BLOOMINGTON    CLOUDY    46  39  76 SW17      29.74
DECATUR        CLOUDY    49  42  77 W16       29.77
PEORIA         CLOUDY    47  38  71 W13G22    29.74
LACON*         CLOUDY    46  39  78 W12G17    29.73R
LINCOLN*       CLOUDY    49  41  73 SW6       29.76S
SPRINGFIELD    CLOUDY    52  42  69 W17G23    29.77S
TAYLORVILLE    CLOUDY    47  40  75 W14G23    29.79R
$$

ILZ033-039-045-046-055>057-062-063-272100-
EAST-CENTRAL ILLINOIS

CITY           SKY/WX    TMP DP  RH WIND       PRES   REMARKS
CHAMPAIGN      CLOUDY    49  42  77 SW20      29.76R
RANTOUL*       CLOUDY    49  44  84 W17G23    29.76R
MATTOON        CLOUDY    50  43  77 W10G21    29.77R
PARIS*         CLOUDY    50  45  84 W15       29.79R
$$

ILZ079-100>102-272100-
SOUTHWEST ILLINOIS

CITY           SKY/WX    TMP DP  RH WIND       PRES   REMARKS
ALTON          MOSUNNY   54  41  62 W13       29.79
BELLEVILLE     CLOUDY    57  43  60 W8        29.78S
CAHOKIA*       SUNNY     58  43  57 W7        29.78F
SPARTA*        PTSUNNY   57  45  62 SW7       29.81S
$$

ILZ064>066-069>071-074>076-080>082-084>086-088>090-092>094-272100-
SOUTH-CENTRAL ILLINOIS

CITY           SKY/WX    TMP DP  RH WIND       PRES   REMARKS
CARBONDALE     PTSUNNY   57  47  69 W8G17     29.81S
CAIRO*         PTSUNNY   58  48  69 SW8G16    29.83S
EFFINGHAM*     CLOUDY    52  46  77 SW12      29.81R
MARION         CLOUDY    57  48  72 SW12      29.82S
MT. VERNON     CLOUDY    56  45  66 SW10      29.81
CENTRALIA*     CLOUDY    55  46  71 SW9       29.80R
SALEM*         CLOUDY    55  44  66 SW14      29.80R
METROPOLIS*    CLOUDY    56  48  73 SW12      29.85S
$$

ILZ067-068-072-073-078-083-087-091-272100-
SOUTHEAST ILLINOIS

CITY           SKY/WX    TMP DP  RH WIND       PRES   REMARKS
LAWRENCEVILLE  CLOUDY    56  46  69 W16       29.80R
FLORA*         CLOUDY    55  45  70 W8        29.81S
FAIRFIELD*     CLOUDY    53  46  74 W5        29.81R
HARRISBURG*    CLOUDY    56  49  75 W9        29.83R
ROBINSON*      CLOUDY    52  46  79 W14G23    29.80S
CARMI*         CLOUDY    56  47  71 SW10      29.81S
$$

ABBREVIATIONS USED IN REMARKS
   TC - TEMPERATURE IN CELSIUS
  WCI - WIND CHILL INDEX
   HX - HEAT INDEX
  VSB - VISIBILITY
$$





USA.gov is the U.S. government's official web portal to all federal, state and local government web resources and services.